Date String (YYYY-MM-DD hh:mm:ss) UTC,Instrument flags,absolute air pressure of the measurement (hPa),sample flow rate (lpm),inlet stack bypass flow (lpm),air temperature of the measurement (°C),ambient temperature measured by the external sensor (°C),aerosol sample conditioner tube jacket temperature (°C),OPC LED temperature (°C),internal box temperature (°C),relative humidity of the measurement (%),span deviation,mass concentration of particles derived from Lorenz-Mie calculation of OPC scattering (μg/m³),mass concentration of particles derived from Lorenz-Mie calculation of OPC scattering (μg/m³),mass concentration of particles derived from Lorenz-Mie calculation of OPC scattering (μg/m³)
DateTimeUTC,F1_M11,P_M11,Q1_M11,Q2_M11,T1_M11,T2_M11,T3_M11,T4_M11,T5_M11,U1_M11,ZSPAN_M11,X0_M11,X2_M11,X1_M11
2024-05-08 18:00:00,SystemResetWarning,0820.3,5.00,000.00,022.1,021.5,000.0,030.2,023.8,009.2,0000.0,0002.57,0000.69,0000.40
2024-05-08 18:01:00,SystemResetWarning,0820.3,4.99,000.00,022.1,021.6,000.0,030.2,023.9,009.2,0000.0,0001.40,0000.66,0000.40
2024-05-08 18:02:00,SystemResetWarning,0820.3,5.00,000.00,022.2,021.6,000.0,030.2,023.9,009.3,0000.0,0001.56,0000.68,0000.40
2024-05-08 18:03:00,SystemResetWarning,0820.3,5.00,000.00,022.2,021.6,000.0,030.2,023.9,009.1,0000.0,0001.65,0000.71,0000.40
2024-05-08 18:04:00,SystemResetWarning,0820.4,5.00,000.00,022.2,021.6,000.0,030.2,023.9,009.1,0000.0,0001.63,0000.69,0000.39
2024-05-08 18:05:00,SystemResetWarning,0820.4,5.00,000.00,022.2,021.6,000.0,030.2,023.9,009.2,0000.0,0001.64,0000.69,0000.38
2024-05-08 18:06:00,SystemResetWarning,0820.3,5.00,000.00,022.2,021.6,000.0,030.2,023.9,009.3,0000.0,0001.61,0000.69,0000.38
2024-05-08 18:07:00,SystemResetWarning,0820.3,5.00,000.00,022.2,021.6,000.0,030.2,023.9,009.1,0000.0,0001.60,0000.71,0000.38
2024-05-08 18:08:00,SystemResetWarning,0820.5,5.00,000.00,022.2,021.6,000.0,030.2,023.9,008.9,0000.0,0001.82,0000.72,0000.37
2024-05-08 18:09:00,SystemResetWarning,0820.5,5.00,000.00,022.2,021.6,000.0,030.3,023.9,009.0,0000.0,0001.94,0000.70,0000.36
2024-05-08 18:10:00,SystemResetWarning,0820.7,5.00,000.00,022.2,021.6,000.0,030.3,023.9,009.0,0000.0,0001.93,0000.70,0000.35
2024-05-08 18:11:00,SystemResetWarning,0820.7,5.00,000.00,022.2,021.7,000.0,030.3,024.0,009.1,0000.0,0001.94,0000.71,0000.35
2024-05-08 18:12:00,SystemResetWarning,0820.8,5.00,000.00,022.3,021.7,000.0,030.3,023.9,009.1,0000.0,0001.92,0000.71,0000.35
2024-05-08 18:13:00,SystemResetWarning,0820.8,5.00,000.00,022.3,021.7,000.0,030.3,024.0,009.3,0000.0,0001.81,0000.70,0000.34
2024-05-08 18:14:00,SystemResetWarning,0820.8,5.00,000.00,022.3,021.7,000.0,030.3,024.0,009.4,0000.0,0001.69,0000.65,0000.34
2024-05-08 18:15:00,SystemResetWarning,0820.6,4.99,000.00,022.3,021.7,000.0,030.3,024.0,009.4,0000.0,0003.12,0000.69,0000.34
2024-05-08 18:16:00,SystemResetWarning,0820.7,4.99,000.00,022.3,021.7,000.0,030.3,024.0,009.6,0000.0,0003.20,0000.74,0000.34
2024-05-08 18:17:00,SystemResetWarning,0820.5,5.00,000.00,022.3,021.7,000.0,030.3,024.0,009.2,0000.0,0003.26,0000.77,0000.33
2024-05-08 18:18:00,SystemResetWarning,0820.6,5.00,000.00,022.3,021.7,000.0,030.3,024.0,009.5,0000.0,0003.33,0000.73,0000.33
2024-05-08 18:19:00,SystemResetWarning,0820.6,5.00,000.00,022.3,021.7,000.0,030.3,024.0,009.2,0000.0,0004.20,0000.71,0000.33
2024-05-08 18:20:00,SystemResetWarning,0820.7,5.00,000.00,022.3,021.7,000.0,030.4,024.0,009.3,0000.0,0004.03,0000.73,0000.33
2024-05-08 18:21:00,SystemResetWarning,0820.8,5.00,000.00,022.4,021.7,000.0,030.4,024.0,009.4,0000.0,0004.12,0000.75,0000.33
2024-05-08 18:22:00,SystemResetWarning,0820.9,5.00,000.00,022.4,021.8,000.0,030.4,024.1,009.4,0000.0,0004.08,0000.74,0000.33
2024-05-08 18:23:00,SystemResetWarning,0820.7,5.01,000.00,022.4,021.8,000.0,030.4,024.1,009.3,0000.0,0004.07,0000.73,0000.33
2024-05-08 18:24:00,SystemResetWarning,0820.7,5.00,000.00,022.4,021.8,000.0,030.4,024.1,009.3,0000.0,0004.05,0000.72,0000.33
2024-05-08 18:25:00,SystemResetWarning,0820.5,5.01,000.00,022.4,021.8,000.0,030.4,024.1,009.1,0000.0,0004.08,0000.73,0000.32
2024-05-08 18:26:00,SystemResetWarning,0820.6,5.01,000.00,022.4,021.8,000.0,030.4,024.1,009.2,0000.0,0002.66,0000.66,0000.31
2024-05-08 18:27:00,SystemResetWarning,0820.7,5.00,000.00,022.4,021.8,000.0,030.4,024.1,009.1,0000.0,0002.41,0000.60,0000.31
2024-05-08 18:28:00,SystemResetWarning,0820.6,4.99,000.00,022.4,021.8,000.0,030.4,024.1,009.3,0000.0,0002.32,0000.56,0000.31
2024-05-08 18:29:00,SystemResetWarning,0820.4,4.99,000.00,022.4,021.8,000.0,030.4,024.1,009.3,0000.0,0002.31,0000.56,0000.31
2024-05-08 18:30:00,SystemResetWarning,0820.5,5.00,000.00,022.5,021.9,000.0,030.5,024.1,009.1,0000.0,0001.17,0000.56,0000.31
2024-05-08 18:31:00,SystemResetWarning,0820.5,5.01,000.00,022.5,021.9,000.0,030.5,024.1,009.2,0000.0,0001.13,0000.56,0000.31
2024-05-08 18:32:00,SystemResetWarning,0820.5,5.01,000.00,022.5,021.9,000.0,030.5,024.2,009.4,0000.0,0001.35,0000.58,0000.32
2024-05-08 18:33:00,SystemResetWarning,0820.7,5.00,000.00,022.5,021.9,000.0,030.5,024.2,009.6,0000.0,0002.53,0000.61,0000.33
2024-05-08 18:34:00,SystemResetWarning,0820.5,5.00,000.00,022.5,021.9,000.0,030.5,024.2,009.5,0000.0,0002.62,0000.60,0000.32
2024-05-08 18:35:00,SystemResetWarning,0820.7,5.00,000.00,022.5,021.9,000.0,030.5,024.2,009.5,0000.0,0002.67,0000.61,0000.32
2024-05-08 18:36:00,SystemResetWarning,0820.5,5.00,000.00,022.5,021.9,000.0,030.5,024.2,009.4,0000.0,0002.65,0000.60,0000.31
2024-05-08 18:37:00,SystemResetWarning,0820.4,5.00,000.00,022.5,021.9,000.0,030.5,024.2,009.5,0000.0,0002.94,0000.62,0000.32
2024-05-08 18:38:00,SystemResetWarning,0820.6,5.00,000.00,022.5,021.9,000.0,030.5,024.3,009.2,0000.0,0003.04,0000.63,0000.32
2024-05-08 18:39:00,SystemResetWarning,0820.6,5.00,000.00,022.6,022.0,000.0,030.5,024.3,009.4,0000.0,0003.02,0000.62,0000.32
2024-05-08 18:40:00,SystemResetWarning,0820.5,4.99,000.00,022.6,022.0,000.0,030.6,024.3,009.5,0000.0,0003.15,0000.64,0000.32
2024-05-08 18:41:00,SystemResetWarning,0820.6,5.00,000.00,022.6,022.0,000.0,030.6,024.3,009.4,0000.0,0003.11,0000.63,0000.32
2024-05-08 18:42:00,SystemResetWarning,0820.7,5.00,000.00,022.6,022.0,000.0,030.6,024.2,009.3,0000.0,0003.00,0000.61,0000.31
2024-05-08 18:43:00,SystemResetWarning,0820.6,5.00,000.00,022.6,022.0,000.0,030.6,024.3,010.0,0000.0,0002.91,0000.58,0000.31
2024-05-08 18:44:00,SystemResetWarning,0820.6,5.00,000.00,022.6,022.0,000.0,030.6,024.3,010.0,0000.0,0001.92,0000.55,0000.30
2024-05-08 18:45:00,SystemResetWarning,0820.6,5.01,000.00,022.6,022.0,000.0,030.6,024.3,010.1,0000.0,0002.09,0000.56,0000.30
2024-05-08 18:46:00,SystemResetWarning,0820.7,5.00,000.00,022.6,022.0,000.0,030.6,024.3,009.9,0000.0,0002.61,0000.59,0000.31
2024-05-08 18:47:00,SystemResetWarning,0820.8,5.00,000.00,022.7,022.1,000.0,030.6,024.3,010.5,0000.0,0002.67,0000.62,0000.32
2024-05-08 18:48:00,SystemResetWarning,0820.7,5.00,000.00,022.7,022.1,000.0,030.6,024.3,010.1,0000.0,0002.52,0000.62,0000.32
2024-05-08 18:49:00,SystemResetWarning,0820.7,5.00,000.00,022.7,022.1,000.0,030.7,024.4,009.4,0000.0,0002.32,0000.61,0000.32
2024-05-08 18:50:00,SystemResetWarning,0820.7,5.01,000.00,022.7,022.1,000.0,030.7,024.4,008.9,0000.0,0002.32,0000.61,0000.32
2024-05-08 18:51:00,SystemResetWarning,0820.7,5.00,000.00,022.7,022.1,000.0,030.7,024.4,009.1,0000.0,0002.22,0000.58,0000.31
2024-05-08 18:52:00,SystemResetWarning,0820.7,5.00,000.00,022.7,022.1,000.0,030.7,024.4,009.1,0000.0,0002.27,0000.61,0000.31
2024-05-08 18:53:00,SystemResetWarning,0820.7,4.99,000.00,022.7,022.1,000.0,030.7,024.4,009.3,0000.0,0002.22,0000.59,0000.30
2024-05-08 18:54:00,SystemResetWarning,0820.7,4.99,000.00,022.7,022.2,000.0,030.7,024.4,009.2,0000.0,0002.21,0000.59,0000.30
2024-05-08 18:55:00,SystemResetWarning,0820.7,5.01,000.00,022.7,022.2,000.0,030.7,024.4,009.4,0000.0,0001.84,0000.57,0000.30
2024-05-08 18:56:00,SystemResetWarning,0820.7,5.01,000.00,022.8,022.2,000.0,030.8,024.5,009.5,0000.0,0001.61,0000.55,0000.29
2024-05-08 18:57:00,SystemResetWarning,0820.7,4.99,000.00,022.8,022.2,000.0,030.8,024.5,009.1,0000.0,0001.05,0000.54,0000.28
2024-05-08 18:58:00,SystemResetWarning,0820.6,5.00,000.00,022.8,022.2,000.0,030.8,024.5,009.5,0000.0,0001.04,0000.53,0000.29
2024-05-08 18:59:00,SystemResetWarning,0820.7,5.01,000.00,022.8,022.2,000.0,030.8,024.5,009.6,0000.0,0001.10,0000.54,0000.28
